| time (UTC) | temp F | wind direction | speed knots | gust knots | rain 1hr in | rain 24hr in | rain mn in | humidity % | barometer mb |
| 20260508135424 | 48 | 346 | 3.5 | 4.3 | 0.00 | 0.00 | 0.00 | 52 | 979.3 |
| 20260508134923 | 49 | 295 | 2.6 | 4.3 | 0.00 | 0.00 | 0.00 | 54 | 979.2 |
| 20260508134423 | 48 | 237 | 2.6 | 3.5 | 0.00 | 0.00 | 0.00 | 55 | 979.2 |
| 20260508133922 | 48 | 343 | 4.3 | 6.1 | 0.00 | 0.00 | 0.00 | 58 | 979.2 |
| 20260508132901 | 48 | 335 | 3.5 | 4.3 | 0.00 | 0.00 | 0.00 | 58 | 979.2 |
| 20260508132401 | 47 | 284 | 3.5 | 5.2 | 0.00 | 0.00 | 0.00 | 58 | 979.2 |
| 20260508131901 | 47 | 334 | 2.6 | 5.2 | 0.00 | 0.00 | 0.00 | 61 | 979.2 |
| 20260508131400 | 47 | 291 | 3.5 | 4.3 | 0.00 | 0.00 | 0.00 | 60 | 979.1 |
| 20260508130859 | 47 | 343 | 2.6 | 4.3 | 0.00 | 0.00 | 0.00 | 60 | 979.1 |
| 20260508130359 | 46 | 342 | 3.5 | 6.1 | 0.00 | 0.00 | 0.00 | 60 | 979.1 |
| 20260508125859 | 46 | 301 | 2.6 | 5.2 | 0.00 | 0.00 | 0.00 | 61 | 979.1 |
| 20260508125359 | 46 | 41 | 2.6 | 7.0 | 0.00 | 0.00 | 0.00 | 61 | 979.0 |
| 20260508124858 | 46 | 284 | 4.3 | 6.1 | 0.00 | 0.00 | 0.00 | 64 | 979.0 |
| 20260508124358 | 46 | 335 | 5.2 | 6.1 | 0.00 | 0.00 | 0.00 | 63 | 979.0 |
| 20260508123858 | 46 | 328 | 4.3 | 6.1 | 0.00 | 0.00 | 0.00 | 65 | 979.0 |
| 20260508123357 | 46 | 317 | 2.6 | 4.3 | 0.00 | 0.00 | 0.00 | 65 | 979.1 |
| 20260508122857 | 45 | 256 | 3.5 | 5.2 | 0.00 | 0.00 | 0.00 | 66 | 979.1 |
| 20260508122357 | 45 | 286 | 3.5 | 5.2 | 0.00 | 0.00 | 0.00 | 66 | 979.1 |
| 20260508121857 | 45 | 278 | 3.5 | 4.3 | 0.00 | 0.00 | 0.00 | 67 | 979.0 |
| 20260508121356 | 45 | 263 | 3.5 | 4.3 | 0.00 | 0.00 | 0.00 | 68 | 979.0 |
| 20260508120856 | 44 | 262 | 4.3 | 5.2 | 0.00 | 0.00 | 0.00 | 68 | 979.0 |
| 20260508120355 | 44 | 246 | 2.6 | 4.3 | 0.00 | 0.00 | 0.00 | 68 | 978.9 |
| 20260508115855 | 44 | 245 | 3.5 | 4.3 | 0.00 | 0.00 | 0.00 | 68 | 978.9 |
| 20260508115354 | 44 | 255 | 2.6 | 3.5 | 0.00 | 0.00 | 0.00 | 69 | 978.9 |
| 20260508114854 | 44 | 249 | 3.5 | 4.3 | 0.00 | 0.00 | 0.00 | 70 | 978.9 |
| 20260508113832 | 44 | 255 | 2.6 | 3.5 | 0.00 | 0.00 | 0.00 | 70 | 978.8 |
| 20260508112810 | 42 | 272 | 3.5 | 4.3 | 0.00 | 0.00 | 0.00 | 71 | 978.8 |
| 20260508112310 | 41 | 247 | 2.6 | 4.3 | 0.00 | 0.00 | 0.00 | 73 | 978.8 |
| 20260508111810 | 40 | 256 | 2.6 | 2.6 | 0.00 | 0.00 | 0.00 | 76 | 978.8 |
| 20260508110748 | 39 | 252 | 1.7 | 2.6 | 0.00 | 0.00 | 0.00 | 79 | 978.8 |
| 20260508110248 | 38 | 201 | 2.6 | 2.6 | 0.00 | 0.00 | 0.00 | 81 | 978.8 |
| 20260508105748 | 38 | 214 | 0.9 | 1.7 | 0.00 | 0.00 | 0.00 | 83 | 978.8 |
| 20260508105247 | 37 | 213 | 1.7 | 1.7 | 0.00 | 0.00 | 0.00 | 83 | 978.9 |
| 20260508104747 | 37 | 207 | 1.7 | 1.7 | 0.00 | 0.00 | 0.00 | 84 | 978.8 |
| 20260508104247 | 37 | 0 | 0.0 | 0.0 | 0.00 | 0.00 | 0.00 | 83 | 978.8 |
| 20260508103747 | 37 | 0 | 0.0 | 0.0 | 0.00 | 0.00 | 0.00 | 83 | 978.8 |
| 20260508103246 | 38 | 0 | 0.0 | 0.0 | 0.00 | 0.00 | 0.00 | 82 | 978.8 |
| 20260508102746 | 38 | 0 | 0.0 | 0.0 | 0.00 | 0.00 | 0.00 | 82 | 978.8 |
| 20260508102246 | 38 | 199 | 1.7 | 1.7 | 0.00 | 0.00 | 0.00 | 82 | 978.8 |
| 20260508101746 | 38 | 212 | 1.7 | 1.7 | 0.00 | 0.00 | 0.00 | 81 | 978.7 |
| 20260508100724 | 39 | 241 | 0.9 | 0.9 | 0.00 | 0.00 | 0.00 | 81 | 978.7 |
| 20260508100224 | 39 | 0 | 0.0 | 0.0 | 0.00 | 0.00 | 0.00 | 79 | 978.7 |
| 20260508095724 | 40 | 218 | 1.7 | 1.7 | 0.00 | 0.00 | 0.00 | 78 | 978.6 |
| 20260508095224 | 40 | 243 | 0.9 | 1.7 | 0.00 | 0.00 | 0.00 | 78 | 978.7 |
| 20260508094723 | 40 | 249 | 1.7 | 1.7 | 0.00 | 0.00 | 0.00 | 79 | 978.6 |
| 20260508094223 | 40 | 271 | 0.9 | 1.7 | 0.00 | 0.00 | 0.00 | 79 | 978.5 |
| 20260508093722 | 40 | 235 | 0.9 | 1.7 | 0.00 | 0.00 | 0.00 | 78 | 978.5 |
| 20260508093222 | 40 | 219 | 0.9 | 1.7 | 0.00 | 0.00 | 0.00 | 78 | 978.5 |
| 20260508092201 | 41 | 205 | 1.7 | 2.6 | 0.00 | 0.00 | 0.00 | 78 | 978.6 |
| 20260508091140 | 41 | 211 | 1.7 | 1.7 | 0.00 | 0.00 | 0.00 | 77 | 978.7 |
| 20260508090639 | 41 | 0 | 0.0 | 0.0 | 0.00 | 0.00 | 0.00 | 77 | 978.8 |
| 20260508090139 | 41 | 0 | 0.0 | 0.0 | 0.00 | 0.00 | 0.00 | 77 | 978.6 |
| 20260508085639 | 41 | 215 | 1.7 | 1.7 | 0.00 | 0.00 | 0.00 | 76 | 978.5 |
| 20260508085139 | 41 | 203 | 1.7 | 1.7 | 0.00 | 0.00 | 0.00 | 76 | 978.6 |
| 20260508084639 | 41 | 0 | 0.0 | 0.0 | 0.00 | 0.00 | 0.00 | 76 | 978.6 |
| 20260508084139 | 41 | 0 | 0.0 | 0.0 | 0.00 | 0.00 | 0.00 | 76 | 978.7 |
| 20260508083638 | 41 | 0 | 0.0 | 0.0 | 0.00 | 0.00 | 0.00 | 75 | 978.6 |
| 20260508082617 | 41 | 195 | 0.9 | 1.7 | 0.00 | 0.00 | 0.00 | 75 | 978.4 |
| 20260508082117 | 41 | 204 | 1.7 | 2.6 | 0.00 | 0.00 | 0.00 | 74 | 978.6 |
| 20260508081056 | 41 | 0 | 0.0 | 0.0 | 0.00 | 0.00 | 0.00 | 75 | 978.7 |
| 20260508080556 | 41 | 0 | 0.0 | 0.0 | 0.00 | 0.00 | 0.00 | 75 | 978.7 |
| 20260508080055 | 41 | 170 | 0.9 | 2.6 | 0.00 | 0.00 | 0.00 | 74 | 978.7 |
| 20260508075555 | 41 | 0 | 0.0 | 0.0 | 0.00 | 0.00 | 0.00 | 75 | 978.7 |
| 20260508075055 | 41 | 180 | 0.0 | 0.9 | 0.00 | 0.00 | 0.00 | 75 | 978.8 |
| 20260508074034 | 41 | 0 | 0.0 | 0.0 | 0.00 | 0.00 | 0.00 | 75 | 978.8 |
| 20260508073534 | 41 | 236 | 1.7 | 1.7 | 0.00 | 0.00 | 0.00 | 75 | 978.8 |
| 20260508073034 | 41 | 0 | 0.0 | 0.0 | 0.00 | 0.00 | 0.00 | 75 | 978.7 |
| 20260508072533 | 41 | 0 | 0.0 | 0.0 | 0.00 | 0.00 | 0.00 | 74 | 978.7 |
| 20260508072033 | 41 | 315 | 0.9 | 1.7 | 0.00 | 0.00 | 0.00 | 74 | 978.8 |
| 20260508071533 | 41 | 0 | 0.0 | 0.0 | 0.00 | 0.00 | 0.00 | 74 | 978.6 |
| 20260508070512 | 41 | 213 | 0.9 | 0.9 | 0.00 | 0.00 | 0.00 | 73 | 978.9 |
| 20260508070012 | 41 | 330 | 1.7 | 1.7 | 0.00 | 0.00 | 0.00 | 73 | 979.0 |
| 20260508065511 | 41 | 333 | 0.9 | 1.7 | 0.00 | 0.00 | 0.00 | 73 | 979.0 |
| 20260508065010 | 41 | 351 | 0.9 | 2.6 | 0.00 | 0.00 | 0.00 | 73 | 978.9 |
| 20260508064510 | 41 | 0 | 0.0 | 0.0 | 0.00 | 0.00 | 0.00 | 72 | 978.8 |
| 20260508064010 | 41 | 9 | 1.7 | 2.6 | 0.00 | 0.00 | 0.00 | 73 | 978.9 |
| 20260508062949 | 42 | 1 | 0.9 | 1.7 | 0.00 | 0.00 | 0.00 | 73 | 979.0 |
| 20260508062449 | 42 | 8 | 1.7 | 2.6 | 0.00 | 0.00 | 0.00 | 73 | 979.0 |
| 20260508061948 | 42 | 14 | 0.9 | 1.7 | 0.00 | 0.00 | 0.00 | 73 | 979.0 |
| 20260508061447 | 41 | 0 | 0.9 | 2.6 | 0.00 | 0.00 | 0.00 | 72 | 979.0 |
| 20260508060947 | 42 | 0 | 0.0 | 0.0 | 0.00 | 0.00 | 0.00 | 71 | 979.1 |
| 20260508060446 | 42 | 0 | 0.0 | 0.0 | 0.00 | 0.00 | 0.00 | 70 | 979.2 |
| 20260508055946 | 42 | 0 | 0.0 | 0.0 | 0.00 | 0.00 | 0.00 | 70 | 979.2 |
| 20260508055446 | 42 | 0 | 0.0 | 0.0 | 0.00 | 0.00 | 0.00 | 69 | 979.2 |
| 20260508054946 | 42 | 209 | 1.7 | 1.7 | 0.00 | 0.00 | 0.00 | 69 | 979.2 |
| 20260508054446 | 42 | 174 | 0.9 | 1.7 | 0.00 | 0.00 | 0.00 | 68 | 979.3 |
| 20260508053946 | 42 | 336 | 0.9 | 1.7 | 0.00 | 0.00 | 0.00 | 70 | 979.4 |
| 20260508052925 | 42 | 71 | 0.9 | 1.7 | 0.00 | 0.00 | 0.00 | 67 | 979.5 |
| 20260508052425 | 42 | 178 | 0.9 | 1.7 | 0.00 | 0.00 | 0.00 | 70 | 979.6 |
| 20260508051403 | 42 | 284 | 1.7 | 1.7 | 0.00 | 0.00 | 0.00 | 69 | 979.6 |
| 20260508050903 | 42 | 0 | 0.0 | 0.0 | 0.00 | 0.00 | 0.00 | 70 | 979.6 |
| 20260508050403 | 42 | 249 | 0.0 | 0.9 | 0.00 | 0.00 | 0.00 | 71 | 979.5 |
| 20260508045903 | 42 | 229 | 1.7 | 1.7 | 0.00 | 0.00 | 0.00 | 70 | 979.5 |
| 20260508044842 | 42 | 252 | 0.9 | 1.7 | 0.00 | 0.00 | 0.00 | 71 | 979.4 |
| 20260508044341 | 42 | 230 | 0.9 | 1.7 | 0.00 | 0.00 | 0.00 | 70 | 979.4 |
| 20260508043841 | 42 | 0 | 0.0 | 0.0 | 0.00 | 0.00 | 0.00 | 70 | 979.4 |
| 20260508043341 | 42 | 200 | 1.7 | 2.6 | 0.00 | 0.00 | 0.00 | 70 | 979.3 |
| 20260508042841 | 42 | 183 | 1.7 | 2.6 | 0.00 | 0.00 | 0.00 | 69 | 979.4 |
| 20260508042341 | 42 | 198 | 1.7 | 1.7 | 0.00 | 0.00 | 0.00 | 70 | 979.4 |
| 20260508041841 | 42 | 173 | 0.9 | 1.7 | 0.00 | 0.00 | 0.00 | 71 | 979.4 |
| 20260508041340 | 41 | 184 | 2.6 | 3.5 | 0.00 | 0.00 | 0.00 | 73 | 979.5 |
| 20260508040839 | 41 | 245 | 1.7 | 2.6 | 0.00 | 0.00 | 0.00 | 73 | 979.5 |
| 20260508040339 | 41 | 133 | 0.9 | 1.7 | 0.00 | 0.00 | 0.00 | 72 | 979.4 |
| 20260508035839 | 41 | 216 | 1.7 | 1.7 | 0.00 | 0.00 | 0.00 | 73 | 979.4 |
| 20260508034817 | 40 | 0 | 0.0 | 0.0 | 0.00 | 0.00 | 0.00 | 72 | 979.3 |
| 20260508034317 | 40 | 233 | 0.9 | 1.7 | 0.00 | 0.00 | 0.00 | 72 | 979.3 |
| 20260508033817 | 40 | 0 | 0.0 | 0.0 | 0.00 | 0.00 | 0.00 | 72 | 979.2 |
| 20260508033316 | 40 | 201 | 1.7 | 1.7 | 0.00 | 0.00 | 0.00 | 73 | 979.3 |
| 20260508032816 | 40 | 293 | 0.9 | 1.7 | 0.00 | 0.00 | 0.00 | 73 | 979.3 |
| 20260508032316 | 40 | 0 | 0.0 | 0.0 | 0.00 | 0.00 | 0.00 | 74 | 979.2 |
| 20260508031815 | 40 | 238 | 1.7 | 1.7 | 0.00 | 0.00 | 0.00 | 73 | 979.1 |
| 20260508031315 | 39 | 188 | 2.6 | 2.6 | 0.00 | 0.00 | 0.00 | 73 | 979.2 |
| 20260508030815 | 39 | 0 | 0.0 | 0.0 | 0.00 | 0.00 | 0.00 | 72 | 979.2 |
| 20260508030315 | 40 | 0 | 0.0 | 0.0 | 0.00 | 0.00 | 0.00 | 72 | 979.2 |
| 20260508025814 | 40 | 0 | 0.0 | 0.0 | 0.00 | 0.00 | 0.00 | 72 | 979.2 |
| 20260508025314 | 40 | 192 | 1.7 | 1.7 | 0.00 | 0.00 | 0.00 | 71 | 979.4 |
| 20260508024812 | 40 | 247 | 1.7 | 1.7 | 0.00 | 0.00 | 0.00 | 72 | 979.4 |
| 20260508024312 | 40 | 0 | 0.0 | 0.0 | 0.00 | 0.00 | 0.00 | 72 | 979.4 |
| 20260508023812 | 40 | 275 | 0.9 | 1.7 | 0.00 | 0.00 | 0.00 | 71 | 979.4 |
| 20260508023312 | 40 | 0 | 0.0 | 0.0 | 0.00 | 0.00 | 0.00 | 72 | 979.3 |
| 20260508022251 | 40 | 0 | 0.0 | 0.0 | 0.00 | 0.00 | 0.00 | 72 | 979.2 |
| 20260508021750 | 40 | 251 | 0.9 | 0.9 | 0.00 | 0.00 | 0.00 | 72 | 979.2 |
| 20260508021249 | 40 | 0 | 0.0 | 0.0 | 0.00 | 0.00 | 0.00 | 73 | 979.2 |
| 20260508020749 | 39 | 0 | 0.0 | 0.0 | 0.00 | 0.00 | 0.00 | 73 | 979.1 |
| 20260508020249 | 40 | 0 | 0.0 | 0.0 | 0.00 | 0.00 | 0.00 | 72 | 979.1 |
| 20260508014707 | 40 | 272 | 0.9 | 0.9 | 0.00 | 0.00 | 0.00 | 72 | 979.1 |
| 20260508014207 | 40 | 0 | 0.0 | 0.0 | 0.00 | 0.00 | 0.00 | 71 | 979.0 |
| 20260508013707 | 41 | 0 | 0.0 | 0.0 | 0.00 | 0.00 | 0.00 | 69 | 979.0 |
| 20260508013206 | 41 | 0 | 0.0 | 0.0 | 0.00 | 0.00 | 0.00 | 69 | 979.1 |
| 20260508012145 | 42 | 0 | 0.0 | 0.0 | 0.00 | 0.00 | 0.00 | 67 | 979.0 |
| 20260508011645 | 43 | 0 | 0.0 | 0.0 | 0.00 | 0.00 | 0.00 | 66 | 978.9 |
| 20260508011144 | 43 | 0 | 0.0 | 0.0 | 0.00 | 0.00 | 0.00 | 65 | 978.9 |
| 20260508010644 | 44 | 0 | 0.0 | 0.0 | 0.00 | 0.00 | 0.00 | 64 | 978.8 |
| 20260508010143 | 44 | 0 | 0.0 | 0.0 | 0.00 | 0.00 | 0.00 | 62 | 978.7 |
| 20260508005643 | 44 | 0 | 0.0 | 0.0 | 0.00 | 0.00 | 0.00 | 61 | 978.6 |
| 20260508005141 | 45 | 230 | 0.9 | 1.7 | 0.00 | 0.00 | 0.00 | 60 | 978.7 |
| 20260508004641 | 45 | 338 | 1.7 | 2.6 | 0.00 | 0.00 | 0.00 | 59 | 978.8 |
| 20260508004141 | 45 | 348 | 2.6 | 3.5 | 0.00 | 0.00 | 0.00 | 58 | 978.7 |
| 20260508003641 | 46 | 307 | 1.7 | 2.6 | 0.00 | 0.00 | 0.00 | 58 | 978.7 |
| 20260508003141 | 46 | 354 | 0.9 | 4.3 | 0.00 | 0.00 | 0.00 | 57 | 978.5 |
| 20260508002641 | 46 | 344 | 2.6 | 3.5 | 0.00 | 0.00 | 0.00 | 56 | 978.5 |
| 20260508002140 | 47 | 250 | 0.9 | 1.7 | 0.00 | 0.00 | 0.00 | 56 | 978.4 |
| 20260508001640 | 47 | 332 | 1.7 | 2.6 | 0.00 | 0.00 | 0.00 | 55 | 978.3 |
| 20260508001140 | 48 | 333 | 2.6 | 4.3 | 0.00 | 0.00 | 0.00 | 54 | 978.3 |
| 20260508000118 | 48 | 346 | 2.6 | 4.3 | 0.00 | 0.00 | 0.00 | 52 | 978.1 |
| 20260507235618 | 48 | 334 | 2.6 | 4.3 | 0.00 | 0.00 | 0.00 | 52 | 978.1 |
| 20260507235118 | 48 | 348 | 3.5 | 5.2 | 0.00 | 0.00 | 0.00 | 51 | 978.1 |
| 20260507234617 | 49 | 343 | 4.3 | 5.2 | 0.00 | 0.00 | 0.00 | 51 | 978.2 |
| 20260507234116 | 49 | 349 | 4.3 | 7.0 | 0.00 | 0.00 | 0.00 | 50 | 978.1 |
| 20260507233616 | 49 | 340 | 4.3 | 6.1 | 0.00 | 0.00 | 0.00 | 50 | 978.2 |
| 20260507233115 | 49 | 342 | 3.5 | 4.3 | 0.00 | 0.00 | 0.00 | 50 | 978.2 |
| 20260507232615 | 49 | 322 | 5.2 | 7.8 | 0.00 | 0.00 | 0.00 | 49 | 978.1 |
| 20260507232115 | 50 | 356 | 3.5 | 6.1 | 0.00 | 0.00 | 0.00 | 49 | 978.0 |
| 20260507231615 | 50 | 332 | 3.5 | 6.1 | 0.00 | 0.00 | 0.00 | 48 | 978.1 |
| 20260507231115 | 50 | 9 | 1.7 | 3.5 | 0.00 | 0.00 | 0.00 | 49 | 978.1 |
| 20260507230614 | 49 | 316 | 5.2 | 7.0 | 0.00 | 0.00 | 0.00 | 49 | 978.0 |
| 20260507225553 | 49 | 352 | 5.2 | 7.8 | 0.00 | 0.00 | 0.00 | 49 | 978.1 |
| 20260507224532 | 49 | 317 | 2.6 | 3.5 | 0.00 | 0.00 | 0.00 | 51 | 978.1 |
| 20260507224031 | 49 | 338 | 5.2 | 7.0 | 0.00 | 0.00 | 0.00 | 52 | 978.1 |
| 20260507223531 | 49 | 322 | 2.6 | 3.5 | 0.00 | 0.00 | 0.00 | 54 | 978.2 |
| 20260507223031 | 49 | 308 | 2.6 | 3.5 | 0.00 | 0.00 | 0.00 | 53 | 978.3 |
| 20260507222009 | 50 | 328 | 5.2 | 7.0 | 0.00 | 0.00 | 0.00 | 50 | 978.2 |
| 20260507221509 | 49 | 350 | 3.5 | 5.2 | 0.00 | 0.00 | 0.00 | 52 | 978.2 |
| 20260507220447 | 48 | 338 | 3.5 | 6.1 | 0.00 | 0.00 | 0.00 | 55 | 978.3 |
| 20260507215947 | 48 | 303 | 3.5 | 5.2 | 0.00 | 0.00 | 0.00 | 55 | 978.3 |
| 20260507214926 | 47 | 322 | 4.3 | 7.0 | 0.00 | 0.00 | 0.00 | 57 | 978.4 |
| 20260507214425 | 47 | 328 | 5.2 | 7.0 | 0.00 | 0.00 | 0.00 | 58 | 978.4 |
| 20260507213924 | 47 | 342 | 3.5 | 6.1 | 0.00 | 0.00 | 0.00 | 57 | 978.3 |
| 20260507212902 | 47 | 0 | 3.5 | 7.0 | 0.00 | 0.00 | 0.00 | 57 | 978.2 |
| 20260507212402 | 47 | 21 | 4.3 | 6.1 | 0.00 | 0.00 | 0.00 | 56 | 978.2 |
| 20260507210259 | 48 | 354 | 5.2 | 7.8 | 0.00 | 0.00 | 0.00 | 55 | 978.1 |
| 20260507205758 | 48 | 340 | 5.2 | 7.0 | 0.00 | 0.00 | 0.00 | 55 | 978.0 |
| 20260507205257 | 48 | 348 | 6.1 | 7.8 | 0.00 | 0.00 | 0.00 | 55 | 978.0 |
| 20260507204757 | 48 | 8 | 3.5 | 7.8 | 0.00 | 0.00 | 0.00 | 57 | 977.9 |
| 20260507204257 | 48 | 19 | 2.6 | 3.5 | 0.00 | 0.00 | 0.00 | 56 | 977.9 |
| 20260507203757 | 48 | 315 | 2.6 | 3.5 | 0.00 | 0.00 | 0.00 | 57 | 977.9 |
| 20260507203257 | 48 | 347 | 1.7 | 3.5 | 0.00 | 0.00 | 0.00 | 56 | 977.9 |
| 20260507202757 | 48 | 319 | 3.5 | 5.2 | 0.00 | 0.00 | 0.00 | 55 | 977.9 |
| 20260507202256 | 48 | 341 | 3.5 | 6.1 | 0.00 | 0.00 | 0.00 | 57 | 977.9 |
| 20260507201756 | 48 | 300 | 3.5 | 6.1 | 0.00 | 0.00 | 0.00 | 58 | 977.9 |
| 20260507201256 | 48 | 342 | 4.3 | 7.0 | 0.00 | 0.00 | 0.00 | 56 | 977.9 |
| 20260507195713 | 49 | 302 | 4.3 | 6.1 | 0.00 | 0.00 | 0.00 | 56 | 977.8 |
| 20260507195213 | 50 | 346 | 5.2 | 10.4 | 0.00 | 0.00 | 0.00 | 47 | 977.9 |
| 20260507194151 | 51 | 344 | 3.5 | 6.1 | 0.00 | 0.00 | 0.00 | 45 | 977.8 |
| 20260507193651 | 51 | 287 | 1.7 | 4.3 | 0.00 | 0.00 | 0.00 | 44 | 977.7 |
| 20260507193151 | 51 | 300 | 5.2 | 8.7 | 0.00 | 0.00 | 0.00 | 44 | 977.7 |
| 20260507192651 | 51 | 323 | 3.5 | 4.3 | 0.00 | 0.00 | 0.00 | 43 | 977.7 |
| 20260507192150 | 51 | 321 | 2.6 | 4.3 | 0.00 | 0.00 | 0.00 | 43 | 977.8 |
| 20260507191129 | 51 | 333 | 3.5 | 5.2 | 0.00 | 0.00 | 0.00 | 43 | 977.9 |
| 20260507190629 | 51 | 319 | 3.5 | 6.1 | 0.00 | 0.00 | 0.00 | 42 | 977.9 |
| 20260507190129 | 51 | 301 | 2.6 | 7.0 | 0.00 | 0.00 | 0.00 | 43 | 977.9 |
| 20260507185628 | 51 | 256 | 6.1 | 7.8 | 0.00 | 0.00 | 0.00 | 42 | 977.9 |
| 20260507185128 | 51 | 292 | 5.2 | 7.0 | 0.00 | 0.00 | 0.00 | 41 | 977.9 |
| 20260507184628 | 51 | 304 | 3.5 | 5.2 | 0.00 | 0.00 | 0.00 | 42 | 977.9 |
| 20260507184128 | 51 | 277 | 6.1 | 8.7 | 0.00 | 0.00 | 0.00 | 41 | 977.9 |
| 20260507183107 | 51 | 253 | 1.7 | 2.6 | 0.00 | 0.00 | 0.00 | 43 | 977.8 |
| 20260507182607 | 51 | 337 | 2.6 | 4.3 | 0.00 | 0.00 | 0.00 | 43 | 977.8 |
| 20260507182107 | 51 | 314 | 5.2 | 8.7 | 0.00 | 0.00 | 0.00 | 43 | 977.8 |
| 20260507181044 | 52 | 347 | 4.3 | 7.0 | 0.00 | 0.00 | 0.00 | 43 | 977.7 |
| 20260507180543 | 52 | 350 | 5.2 | 7.0 | 0.00 | 0.00 | 0.00 | 43 | 977.8 |
| 20260507180043 | 52 | 0 | 4.3 | 8.7 | 0.00 | 0.00 | 0.00 | 44 | 977.8 |
| 20260507175543 | 52 | 8 | 4.3 | 7.8 | 0.00 | 0.00 | 0.00 | 45 | 977.8 |
| 20260507175043 | 52 | 353 | 5.2 | 7.8 | 0.00 | 0.00 | 0.00 | 44 | 978.0 |
| 20260507174543 | 51 | 349 | 6.1 | 8.7 | 0.00 | 0.00 | 0.00 | 43 | 978.0 |
| 20260507174043 | 51 | 324 | 6.1 | 7.8 | 0.00 | 0.00 | 0.00 | 43 | 978.1 |
| 20260507173542 | 51 | 349 | 7.8 | 10.4 | 0.00 | 0.00 | 0.00 | 42 | 978.2 |
| 20260507173042 | 51 | 330 | 3.5 | 5.2 | 0.00 | 0.00 | 0.00 | 44 | 978.2 |
| 20260507172542 | 51 | 30 | 2.6 | 4.3 | 0.00 | 0.00 | 0.00 | 43 | 978.2 |
| 20260507172042 | 51 | 353 | 2.6 | 5.2 | 0.00 | 0.00 | 0.00 | 44 | 978.4 |
| 20260507171542 | 51 | 333 | 4.3 | 7.8 | 0.00 | 0.00 | 0.00 | 45 | 978.4 |
| 20260507171042 | 50 | 339 | 6.1 | 8.7 | 0.00 | 0.00 | 0.00 | 45 | 978.4 |
| 20260507170541 | 51 | 342 | 4.3 | 7.0 | 0.00 | 0.00 | 0.00 | 45 | 978.4 |
| 20260507170041 | 51 | 340 | 7.0 | 8.7 | 0.00 | 0.00 | 0.00 | 44 | 978.5 |
| 20260507165541 | 51 | 346 | 6.1 | 8.7 | 0.00 | 0.00 | 0.00 | 45 | 978.5 |
| 20260507165041 | 51 | 332 | 5.2 | 8.7 | 0.00 | 0.00 | 0.00 | 46 | 978.5 |
| 20260507164541 | 51 | 331 | 5.2 | 7.8 | 0.00 | 0.00 | 0.00 | 44 | 978.7 |
| 20260507164040 | 50 | 341 | 1.7 | 4.3 | 0.00 | 0.00 | 0.00 | 47 | 978.7 |
| 20260507163540 | 50 | 351 | 3.5 | 6.1 | 0.00 | 0.00 | 0.00 | 45 | 978.8 |
| 20260507163040 | 50 | 332 | 4.3 | 7.8 | 0.00 | 0.00 | 0.00 | 46 | 978.8 |
| 20260507162540 | 50 | 255 | 3.5 | 6.1 | 0.00 | 0.00 | 0.00 | 45 | 978.9 |
| 20260507161518 | 50 | 310 | 3.5 | 5.2 | 0.00 | 0.00 | 0.00 | 46 | 978.9 |
| 20260507161018 | 50 | 326 | 3.5 | 5.2 | 0.00 | 0.00 | 0.00 | 46 | 978.9 |
| 20260507160517 | 50 | 260 | 3.5 | 6.1 | 0.00 | 0.00 | 0.00 | 46 | 978.9 |
| 20260507160017 | 50 | 255 | 6.1 | 7.0 | 0.00 | 0.00 | 0.00 | 45 | 979.0 |
| 20260507155517 | 50 | 279 | 5.2 | 6.1 | 0.00 | 0.00 | 0.00 | 44 | 979.0 |
| 20260507155017 | 50 | 312 | 4.3 | 7.0 | 0.00 | 0.00 | 0.00 | 45 | 979.0 |
| 20260507154517 | 51 | 295 | 5.2 | 7.8 | 0.00 | 0.00 | 0.00 | 44 | 979.0 |
| 20260507154016 | 51 | 281 | 5.2 | 8.7 | 0.00 | 0.00 | 0.00 | 44 | 979.0 |
| 20260507153516 | 50 | 261 | 5.2 | 7.0 | 0.00 | 0.00 | 0.00 | 45 | 979.0 |
| 20260507153016 | 50 | 343 | 4.3 | 6.1 | 0.00 | 0.00 | 0.00 | 44 | 979.0 |
| 20260507152516 | 50 | 279 | 5.2 | 10.4 | 0.00 | 0.00 | 0.00 | 45 | 979.0 |
| 20260507152016 | 51 | 315 | 5.2 | 7.0 | 0.00 | 0.00 | 0.00 | 46 | 979.0 |
| 20260507150955 | 50 | 309 | 2.6 | 4.3 | 0.00 | 0.00 | 0.00 | 48 | 979.0 |
| 20260507150454 | 49 | 299 | 5.2 | 7.0 | 0.00 | 0.00 | 0.00 | 49 | 979.1 |
| 20260507145954 | 50 | 265 | 3.5 | 6.1 | 0.00 | 0.00 | 0.00 | 47 | 979.1 |
| 20260507145454 | 49 | 237 | 1.7 | 3.5 | 0.00 | 0.00 | 0.00 | 48 | 979.1 |
| 20260507144953 | 49 | 260 | 3.5 | 6.1 | 0.00 | 0.00 | 0.00 | 49 | 979.1 |
| 20260507144453 | 49 | 326 | 5.2 | 7.8 | 0.00 | 0.00 | 0.00 | 47 | 979.1 |
| 20260507143431 | 48 | 28 | 2.6 | 5.2 | 0.00 | 0.00 | 0.00 | 53 | 979.3 |
| 20260507142931 | 48 | 340 | 3.5 | 6.1 | 0.00 | 0.00 | 0.00 | 55 | 979.3 |
| 20260507142431 | 48 | 14 | 0.9 | 2.6 | 0.00 | 0.00 | 0.00 | 54 | 979.4 |
| 20260507141931 | 48 | 304 | 4.3 | 7.0 | 0.00 | 0.00 | 0.00 | 55 | 979.4 |
| 20260507141431 | 48 | 285 | 2.6 | 3.5 | 0.00 | 0.00 | 0.00 | 58 | 979.5 |
| 20260507140931 | 47 | 22 | 2.6 | 4.3 | 0.00 | 0.00 | 0.00 | 59 | 979.5 |
| 20260507135909 | 47 | 20 | 4.3 | 6.1 | 0.00 | 0.00 | 0.00 | 58 | 979.6 |